Time,TemperatureF,DewpointF,PressureIn,WindDirection,WindDirectionDegrees,WindSpeedMPH,WindSpeedGustMPH,Humidity,HourlyPrecipIn,Conditions,Clouds,dailyrainin,SoftwareType,DateUTC
2013-01-11 00:14:00,34.0,25.0,30.50,NW,313,2.0,-999.0,69,-99.99,,,0.00,weatherlink.com 1.10,2013-01-11 05:14:00,
2013-01-11 00:29:00,33.7,25.0,30.49,NW,313,2.0,-999.0,71,-99.99,,,0.00,weatherlink.com 1.10,2013-01-11 05:29:00,
2013-01-11 00:44:00,33.5,25.0,30.50,NW,313,1.0,-999.0,70,-99.99,,,0.00,weatherlink.com 1.10,2013-01-11 05:44:00,
2013-01-11 00:59:00,33.4,25.0,30.49,NW,313,2.0,-999.0,70,-99.99,,,0.00,weatherlink.com 1.10,2013-01-11 05:59:00,
2013-01-11 01:14:00,33.4,25.0,30.48,NW,313,0.0,-999.0,70,-99.99,,,0.00,weatherlink.com 1.10,2013-01-11 06:14:00,
2013-01-11 01:29:00,33.0,24.0,30.49,NW,313,5.0,-999.0,69,-99.99,,,0.00,weatherlink.com 1.10,2013-01-11 06:29:00,
2013-01-11 01:44:00,33.0,24.0,30.49,NW,313,1.0,-999.0,70,-99.99,,,0.00,weatherlink.com 1.10,2013-01-11 06:44:00,
2013-01-11 01:59:00,32.5,24.0,30.49,NW,313,0.0,-999.0,72,-99.99,,,0.00,weatherlink.com 1.10,2013-01-11 06:59:00,
2013-01-11 02:14:00,32.0,24.0,30.49,NW,313,0.0,-999.0,73,-99.99,,,0.00,weatherlink.com 1.10,2013-01-11 07:14:00,
2013-01-11 02:29:00,31.8,24.0,30.49,NW,313,1.0,-999.0,72,-99.99,,,0.00,weatherlink.com 1.10,2013-01-11 07:29:00,
2013-01-11 02:44:00,31.6,24.0,30.49,NW,313,0.0,-999.0,73,-99.99,,,0.00,weatherlink.com 1.10,2013-01-11 07:44:00,
2013-01-11 02:59:00,31.1,23.0,30.48,NW,313,0.0,-999.0,73,-99.99,,,0.00,weatherlink.com 1.10,2013-01-11 07:59:00,
2013-01-11 03:14:00,31.2,23.0,30.48,NW,313,3.0,-999.0,73,-99.99,,,0.00,weatherlink.com 1.10,2013-01-11 08:14:00,
2013-01-11 03:29:00,31.5,23.0,30.48,NNW,329,4.0,-999.0,71,-99.99,,,0.00,weatherlink.com 1.10,2013-01-11 08:29:00,
2013-01-11 03:44:00,31.5,24.0,30.48,NNW,334,6.0,-999.0,73,-99.99,,,0.00,weatherlink.com 1.10,2013-01-11 08:44:00,
2013-01-11 03:59:00,31.4,24.0,30.48,North,355,4.0,-999.0,73,-99.99,,,0.00,weatherlink.com 1.10,2013-01-11 08:59:00,
2013-01-11 04:14:00,31.3,23.0,30.47,North,360,2.0,-999.0,72,-99.99,,,0.00,weatherlink.com 1.10,2013-01-11 09:14:00,
2013-01-11 04:29:00,31.2,24.0,30.47,North,11,3.0,-999.0,74,-99.99,,,0.00,weatherlink.com 1.10,2013-01-11 09:29:00,
2013-01-11 04:44:00,31.2,24.0,30.47,NNE,16,5.0,-999.0,74,-99.99,,,0.00,weatherlink.com 1.10,2013-01-11 09:44:00,
2013-01-11 04:59:00,31.0,24.0,30.46,NNE,15,6.0,-999.0,74,-99.99,,,0.00,weatherlink.com 1.10,2013-01-11 09:59:00,
2013-01-11 05:14:00,30.8,23.0,30.47,North,360,2.0,-999.0,73,-99.99,,,0.00,weatherlink.com 1.10,2013-01-11 10:14:00,
2013-01-11 05:29:00,30.8,24.0,30.47,North,11,2.0,-999.0,76,-99.99,,,0.00,weatherlink.com 1.10,2013-01-11 10:29:00,
2013-01-11 05:44:00,30.9,24.0,30.47,North,10,4.0,-999.0,75,-99.99,,,0.00,weatherlink.com 1.10,2013-01-11 10:44:00,
2013-01-11 05:59:00,30.8,23.0,30.47,NNE,18,9.0,-999.0,74,-99.99,,,0.00,weatherlink.com 1.10,2013-01-11 10:59:00,
2013-01-11 06:14:00,30.7,23.0,30.47,North,9,6.0,-999.0,72,-99.99,,,0.00,weatherlink.com 1.10,2013-01-11 11:14:00,
2013-01-11 06:29:00,30.7,23.0,30.49,NNE,13,4.0,-999.0,73,-99.99,,,0.00,weatherlink.com 1.10,2013-01-11 11:29:00,
2013-01-11 06:44:00,30.6,23.0,30.49,NNE,13,5.0,-999.0,72,-99.99,,,0.00,weatherlink.com 1.10,2013-01-11 11:44:00,
2013-01-11 06:59:00,30.7,23.0,30.50,NNE,13,3.0,-999.0,74,-99.99,,,0.00,weatherlink.com 1.10,2013-01-11 11:59:00,
2013-01-11 07:14:00,30.7,23.0,30.50,NNE,13,2.0,-999.0,73,-99.99,,,0.00,weatherlink.com 1.10,2013-01-11 12:14:00,
2013-01-11 07:29:00,30.8,24.0,30.51,NNE,13,1.0,-999.0,75,-99.99,,,0.00,weatherlink.com 1.10,2013-01-11 12:29:00,
2013-01-11 07:44:00,30.8,23.0,30.51,NNE,13,4.0,-999.0,73,-99.99,,,0.00,weatherlink.com 1.10,2013-01-11 12:44:00,
2013-01-11 07:59:00,30.6,22.0,30.52,NNE,26,4.0,-999.0,69,-99.99,,,0.00,weatherlink.com 1.10,2013-01-11 12:59:00,
2013-01-11 08:14:00,30.8,22.0,30.53,NNE,32,4.0,-999.0,70,-99.99,,,0.00,weatherlink.com 1.10,2013-01-11 13:14:00,
2013-01-11 08:29:00,30.9,22.0,30.52,NE,38,2.0,-999.0,69,-99.99,,,0.00,weatherlink.com 1.10,2013-01-11 13:29:00,
2013-01-11 08:44:00,30.6,21.0,30.50,NE,36,5.0,-999.0,68,-99.99,,,0.00,weatherlink.com 1.10,2013-01-11 13:44:00,
2013-01-11 08:59:00,30.5,21.0,30.50,NE,37,7.0,-999.0,69,-99.99,,,0.00,weatherlink.com 1.10,2013-01-11 13:59:00,
2013-01-11 09:14:00,30.8,22.0,30.50,NE,36,7.0,-999.0,70,-99.99,,,0.00,weatherlink.com 1.10,2013-01-11 14:14:00,
2013-01-11 09:29:00,30.8,22.0,30.50,NE,44,9.0,-999.0,69,-99.99,,,0.00,weatherlink.com 1.10,2013-01-11 14:29:00,
2013-01-11 09:44:00,31.3,23.0,30.50,NE,44,10.0,-999.0,70,-99.99,,,0.00,weatherlink.com 1.10,2013-01-11 14:44:00,
2013-01-11 09:59:00,31.5,22.0,30.50,NE,47,4.0,-999.0,67,-99.99,,,0.00,weatherlink.com 1.10,2013-01-11 14:59:00,
2013-01-11 10:14:00,32.0,22.0,30.49,NE,42,3.0,-999.0,67,-99.99,,,0.00,weatherlink.com 1.10,2013-01-11 15:14:00,
2013-01-11 10:29:00,32.3,22.0,30.49,NE,51,2.0,-999.0,67,-99.99,,,0.00,weatherlink.com 1.10,2013-01-11 15:29:00,
2013-01-11 10:44:00,32.9,22.0,30.48,East,81,2.0,-999.0,64,-99.99,,,0.00,weatherlink.com 1.10,2013-01-11 15:44:00,
2013-01-11 10:59:00,33.1,22.0,30.47,ENE,63,0.0,-999.0,65,-99.99,,,0.00,weatherlink.com 1.10,2013-01-11 15:59:00,
2013-01-11 11:14:00,33.4,23.0,30.45,ENE,63,1.0,-999.0,65,-99.99,,,0.00,weatherlink.com 1.10,2013-01-11 16:14:00,
2013-01-11 11:29:00,33.7,23.0,30.44,ENE,63,1.0,-999.0,65,-99.99,,,0.00,weatherlink.com 1.10,2013-01-11 16:29:00,
2013-01-11 11:44:00,34.7,23.0,30.43,ENE,63,0.0,-999.0,63,-99.99,,,0.00,weatherlink.com 1.10,2013-01-11 16:44:00,
2013-01-11 11:59:00,35.0,23.0,30.42,ENE,63,0.0,-999.0,63,-99.99,,,0.00,weatherlink.com 1.10,2013-01-11 16:59:00,
2013-01-11 12:14:00,35.1,24.0,30.42,ENE,63,1.0,-999.0,65,-99.99,,,0.00,weatherlink.com 1.10,2013-01-11 17:14:00,
2013-01-11 12:29:00,35.0,25.0,30.41,ENE,63,2.0,-999.0,68,-99.99,,,0.00,weatherlink.com 1.10,2013-01-11 17:29:00,
2013-01-11 12:44:00,34.7,26.0,30.41,ENE,63,1.0,-999.0,70,-99.99,,,0.00,weatherlink.com 1.10,2013-01-11 17:44:00,
2013-01-11 12:59:00,35.3,25.0,30.41,ENE,63,0.0,-999.0,67,-99.99,,,0.00,weatherlink.com 1.10,2013-01-11 17:59:00,
2013-01-11 13:14:00,35.8,26.0,30.40,ENE,63,2.0,-999.0,67,-99.99,,,0.00,weatherlink.com 1.10,2013-01-11 18:14:00,
2013-01-11 13:29:00,35.4,26.0,30.39,ENE,63,2.0,-999.0,68,-99.99,,,0.00,weatherlink.com 1.10,2013-01-11 18:29:00,
2013-01-11 13:44:00,35.4,27.0,30.39,ENE,63,1.0,-999.0,71,-99.99,,,0.00,weatherlink.com 1.10,2013-01-11 18:44:00,
2013-01-11 13:59:00,35.8,28.0,30.39,ENE,63,1.0,-999.0,72,-99.99,,,0.00,weatherlink.com 1.10,2013-01-11 18:59:00,
2013-01-11 14:14:00,35.7,28.0,30.38,ENE,63,2.0,-999.0,73,-99.99,,,0.00,weatherlink.com 1.10,2013-01-11 19:14:00,
2013-01-11 14:29:00,36.0,28.0,30.38,ENE,63,0.0,-999.0,73,-99.99,,,0.00,weatherlink.com 1.10,2013-01-11 19:29:00,
2013-01-11 14:44:00,36.0,28.0,30.37,ENE,63,1.0,-999.0,73,-99.99,,,0.00,weatherlink.com 1.10,2013-01-11 19:44:00,
2013-01-11 14:59:00,36.4,29.0,30.36,ENE,63,0.0,-999.0,75,-99.99,,,0.00,weatherlink.com 1.10,2013-01-11 19:59:00,
2013-01-11 15:14:00,36.5,29.0,30.36,ENE,63,0.0,-999.0,73,-99.99,,,0.00,weatherlink.com 1.10,2013-01-11 20:14:00,
2013-01-11 15:29:00,36.5,29.0,30.35,ENE,63,1.0,-999.0,75,-99.99,,,0.00,weatherlink.com 1.10,2013-01-11 20:29:00,
2013-01-11 15:44:00,36.4,29.0,30.35,ENE,63,2.0,-999.0,75,-99.99,,,0.00,weatherlink.com 1.10,2013-01-11 20:44:00,
2013-01-11 15:59:00,36.5,30.0,30.34,ENE,63,1.0,-999.0,76,-99.99,,,0.00,weatherlink.com 1.10,2013-01-11 20:59:00,
2013-01-11 16:14:00,36.4,30.0,30.34,ENE,63,0.0,-999.0,77,-99.99,,,0.00,weatherlink.com 1.10,2013-01-11 21:14:00,
2013-01-11 16:29:00,36.4,30.0,30.31,ENE,63,2.0,-999.0,78,-99.99,,,0.00,weatherlink.com 1.10,2013-01-11 21:29:00,
2013-01-11 16:44:00,36.6,30.0,30.31,ENE,63,2.0,-999.0,78,-99.99,,,0.00,weatherlink.com 1.10,2013-01-11 21:44:00,
2013-01-11 16:59:00,36.9,30.0,30.32,ENE,63,0.0,-999.0,77,-99.99,,,0.00,weatherlink.com 1.10,2013-01-11 21:59:00,
2013-01-11 17:14:00,37.1,31.0,30.32,ENE,63,1.0,-999.0,77,-99.99,,,0.00,weatherlink.com 1.10,2013-01-11 22:14:00,
2013-01-11 17:29:00,37.5,31.0,30.32,ENE,63,4.0,-999.0,78,-99.99,,,0.00,weatherlink.com 1.10,2013-01-11 22:29:00,
2013-01-11 17:44:00,37.7,31.0,30.31,ENE,66,3.0,-999.0,78,-99.99,,,0.00,weatherlink.com 1.10,2013-01-11 22:44:00,
2013-01-11 17:59:00,37.9,32.0,30.31,East,79,3.0,-999.0,79,-99.99,,,0.00,weatherlink.com 1.10,2013-01-11 22:59:00,
2013-01-11 18:14:00,38.1,32.0,30.31,East,95,3.0,-999.0,80,-99.99,,,0.00,weatherlink.com 1.10,2013-01-11 23:14:00,
2013-01-11 18:29:00,38.5,33.0,30.31,ESE,103,5.0,-999.0,79,-99.99,,,0.00,weatherlink.com 1.10,2013-01-11 23:29:00,
2013-01-11 18:44:00,38.7,33.0,30.31,ESE,110,3.0,-999.0,80,-99.99,,,0.00,weatherlink.com 1.10,2013-01-11 23:44:00,
2013-01-11 18:59:00,38.9,34.0,30.30,ESE,111,3.0,-999.0,81,-99.99,,,0.00,weatherlink.com 1.10,2013-01-11 23:59:00,
2013-01-11 19:13:00,39.1,34.0,30.30,ESE,112,6.0,-999.0,81,-99.99,,,0.00,weatherlink.com 1.10,2013-01-12 00:13:00,
2013-01-11 19:28:00,39.2,34.0,30.29,ESE,115,6.0,-999.0,81,-99.99,,,0.00,weatherlink.com 1.10,2013-01-12 00:28:00,
2013-01-11 19:43:00,39.3,34.0,30.29,ESE,118,6.0,-999.0,82,-99.99,,,0.00,weatherlink.com 1.10,2013-01-12 00:43:00,
2013-01-11 19:58:00,39.5,35.0,30.29,ESE,119,6.0,-999.0,83,-99.99,,,0.00,weatherlink.com 1.10,2013-01-12 00:58:00,
2013-01-11 20:13:00,39.2,35.0,30.28,ESE,119,5.0,-999.0,84,-99.99,,,0.00,weatherlink.com 1.10,2013-01-12 01:13:00,
2013-01-11 20:28:00,39.3,35.0,30.27,ESE,119,5.0,-999.0,85,-99.99,,,0.00,weatherlink.com 1.10,2013-01-12 01:28:00,
2013-01-11 20:43:00,39.6,36.0,30.27,SE,129,5.0,-999.0,85,-99.99,,,0.00,weatherlink.com 1.10,2013-01-12 01:43:00,
2013-01-11 20:58:00,39.8,36.0,30.27,SE,130,7.0,-999.0,85,-99.99,,,0.00,weatherlink.com 1.10,2013-01-12 01:58:00,
2013-01-11 21:13:00,40.1,36.0,30.27,SE,146,5.0,-999.0,84,-99.99,,,0.00,weatherlink.com 1.10,2013-01-12 02:13:00,
2013-01-11 21:28:00,40.3,36.0,30.26,SSE,162,7.0,-999.0,84,-99.99,,,0.00,weatherlink.com 1.10,2013-01-12 02:28:00,
2013-01-11 21:43:00,40.4,36.0,30.25,SSE,153,7.0,-999.0,84,-99.99,,,0.00,weatherlink.com 1.10,2013-01-12 02:43:00,
2013-01-11 21:58:00,40.7,36.0,30.26,SSE,157,10.0,-999.0,84,-99.99,,,0.00,weatherlink.com 1.10,2013-01-12 02:58:00,
2013-01-11 22:13:00,41.1,37.0,30.25,SSE,160,5.0,-999.0,84,-99.99,,,0.00,weatherlink.com 1.10,2013-01-12 03:13:00,
2013-01-11 22:28:00,40.9,37.0,30.25,SSE,161,6.0,-999.0,85,-99.99,,,0.00,weatherlink.com 1.10,2013-01-12 03:28:00,
2013-01-11 22:43:00,40.9,37.0,30.24,SSE,159,5.0,-999.0,86,-99.99,,,0.00,weatherlink.com 1.10,2013-01-12 03:43:00,
2013-01-11 22:58:00,40.9,37.0,30.24,SSE,165,5.0,-999.0,86,-99.99,,,0.00,weatherlink.com 1.10,2013-01-12 03:58:00,
2013-01-11 23:13:00,41.0,37.0,30.23,SSE,148,6.0,-999.0,86,-99.99,,,0.00,weatherlink.com 1.10,2013-01-12 04:13:00,
2013-01-11 23:28:00,41.0,37.0,30.23,SSE,155,4.0,-999.0,87,-99.99,,,0.00,weatherlink.com 1.10,2013-01-12 04:28:00,
2013-01-11 23:43:00,40.9,37.0,30.23,SSE,155,5.0,-999.0,86,-99.99,,,0.00,weatherlink.com 1.10,2013-01-12 04:43:00,
2013-01-11 23:58:00,40.8,37.0,30.24,SSE,158,4.0,-999.0,87,-99.99,,,0.00,weatherlink.com 1.10,2013-01-12 04:58:00,